Weather History for Washington, IA

Change the Weather History Date:

Sunday, October 27, 2013

  Actual Average Record
Temperature  
Mean Temperature 42 °F -  
Max Temperature 60 °F 56 °F 75 °F (1998)
Min Temperature 24 °F 39 °F 21 °F (1997)
Degree Days  
Heating Degree Days 23    
Moisture  
Dew Point 27 °F    
Average Humidity 60    
Maximum Humidity 100    
Minimum Humidity 25    
Precipitation  
Precipitation 0.00 in - - ()
Sea Level Pressure  
Sea Level Pressure 30.03 in    
Wind  
Wind Speed 6 mph (SW)    
Max Wind Speed 13 mph    
Max Gust Speed 18 mph    
Visibility 10 miles    
Events      
Averages and records for this station are not official NWS values.
T = Trace of Precipitation, MM = Missing Value Source: NWS Daily Summary

Daily Weather History Graph

Daily Weather History Graph

Search for Another Location

Airport:

Trip Planner

Search our weather history database for the weather conditions in past years. The results will help you decide how hot, cold, wet, or windy it might be!

Date:

Astronomy

Oct. 27, 2013 Rise Set
Actual Time 7:32 AM CDT 6:08 PM CDT
Civil Twilight 7:04 AM CDT 6:36 PM CDT
Nautical Twilight 6:31 AM CDT 7:08 PM CDT
Astronomical Twilight 5:59 AM CDT 7:40 PM CDT
Moon 12:25 AM CDT (10/27) 2:21 PM CDT (10/27)
Length of Visible Light 11h 32m
Length of Day
10h 35m
Last Quarter, 43% of the Moon is Illuminated
Oct 27
Last Quarter
Nov 3
New
Nov 9
First Quarter
Nov 17
Full
Nov 25
Last Quarter

Hourly Weather History & Observations

Time (CDT) Temp. Windchill Dew Point Humidity Pressure Visibility Wind Dir Wind Speed Gust Speed Precip Events Conditions
12:15 AM 33.8 °F 27.7 °F 26.6 °F 75% 30.12 in 10.0 mi WNW 6.9 mph - N/A   Clear
12:35 AM 33.8 °F 27.7 °F 26.6 °F 75% 30.11 in 10.0 mi West 6.9 mph - N/A   Clear
12:55 AM 32.0 °F 26.4 °F 26.6 °F 80% 30.11 in 10.0 mi WNW 5.8 mph - N/A   Clear
1:15 AM 32.0 °F 27.5 °F 26.6 °F 80% 30.10 in 10.0 mi West 4.6 mph - N/A   Clear
1:35 AM 32.0 °F 27.5 °F 26.6 °F 80% 30.10 in 10.0 mi West 4.6 mph - N/A   Clear
1:55 AM 32.0 °F 26.4 °F 26.6 °F 80% 30.09 in 10.0 mi West 5.8 mph - N/A   Clear
2:15 AM 30.2 °F 23.4 °F 24.8 °F 80% 30.09 in 10.0 mi WSW 6.9 mph - N/A   Clear
2:35 AM 30.2 °F 24.3 °F 26.6 °F 86% 30.09 in 10.0 mi West 5.8 mph - N/A   Clear
2:55 AM 30.2 °F 24.3 °F 26.6 °F 86% 30.09 in 10.0 mi West 5.8 mph - N/A   Clear
3:15 AM 30.2 °F 23.4 °F 26.6 °F 86% 30.08 in 10.0 mi West 6.9 mph - N/A   Clear
3:35 AM 30.2 °F 23.4 °F 26.6 °F 86% 30.08 in 10.0 mi West 6.9 mph - N/A   Clear
3:55 AM 30.2 °F 25.4 °F 24.8 °F 80% 30.07 in 10.0 mi West 4.6 mph - N/A   Clear
4:15 AM 30.2 °F 25.4 °F 24.8 °F 80% 30.07 in 10.0 mi West 4.6 mph - N/A   Clear
4:35 AM 28.4 °F 22.2 °F 24.8 °F 86% 30.07 in 10.0 mi West 5.8 mph - N/A   Clear
4:55 AM 28.4 °F 24.6 °F 24.8 °F 86% 30.08 in 10.0 mi West 3.5 mph - N/A   Clear
5:15 AM 28.4 °F 24.6 °F 24.8 °F 86% 30.07 in 10.0 mi WSW 3.5 mph - N/A   Clear
5:35 AM 28.4 °F 22.2 °F 24.8 °F 86% 30.07 in 10.0 mi WSW 5.8 mph - N/A   Clear
5:55 AM 26.6 °F 21.2 °F 24.8 °F 93% 30.07 in 10.0 mi WSW 4.6 mph - N/A   Clear
6:15 AM 28.4 °F 22.2 °F 24.8 °F 86% 30.07 in 10.0 mi WSW 5.8 mph - N/A   Clear
6:35 AM 26.6 °F 22.6 °F 24.8 °F 93% 30.07 in 10.0 mi WSW 3.5 mph - N/A   Clear
6:55 AM 26.6 °F 22.6 °F 24.8 °F 93% 30.07 in 10.0 mi WSW 3.5 mph - N/A   Clear
7:15 AM 24.8 °F 20.5 °F 24.8 °F 100% 30.07 in 10.0 mi WSW 3.5 mph - N/A   Clear
7:35 AM 26.6 °F 22.6 °F 24.8 °F 93% 30.08 in 10.0 mi WSW 3.5 mph - N/A   Clear
7:55 AM 26.6 °F 21.2 °F 24.8 °F 93% 30.08 in 10.0 mi SW 4.6 mph - N/A   Clear
8:15 AM 26.6 °F 22.6 °F 24.8 °F 93% 30.08 in 10.0 mi SSW 3.5 mph - N/A   Clear
8:35 AM 30.2 °F 25.4 °F 28.4 °F 93% 30.08 in 10.0 mi SW 4.6 mph - N/A   Clear
8:55 AM 33.8 °F 29.6 °F 28.4 °F 81% 30.08 in 10.0 mi SW 4.6 mph - N/A   Clear
9:15 AM 35.6 °F 32.8 °F 30.2 °F 81% 30.08 in - WSW 3.5 mph - N/A   Clear
9:35 AM 37.4 °F - 30.2 °F 75% 30.08 in 10.0 mi Calm Calm - N/A   Clear
9:55 AM 41.0 °F 37.1 °F 32.0 °F 70% 30.08 in 10.0 mi Variable 5.8 mph - N/A   Clear
10:15 AM 42.8 °F 39.3 °F 30.2 °F 61% 30.07 in 10.0 mi SW 5.8 mph - N/A   Clear
10:35 AM 44.6 °F 40.7 °F 30.2 °F 57% 30.07 in 10.0 mi SW 6.9 mph - N/A   Clear
10:55 AM 48.2 °F - 30.2 °F 50% 30.06 in 10.0 mi Variable 5.8 mph - N/A   Clear
11:15 AM 50.0 °F - 30.2 °F 47% 30.06 in 10.0 mi Variable 6.9 mph 13.8 mph N/A   Clear
11:35 AM 51.8 °F - 30.2 °F 44% 30.05 in 10.0 mi WSW 8.1 mph 15.0 mph N/A   Clear
11:55 AM 51.8 °F - 28.4 °F 41% 30.04 in 10.0 mi WSW 11.5 mph 17.3 mph N/A   Clear
12:15 PM 53.6 °F - 30.2 °F 41% 30.04 in 10.0 mi SW 10.4 mph - N/A   Clear
12:35 PM 53.6 °F - 30.2 °F 41% 30.02 in 10.0 mi WSW 9.2 mph - N/A   Clear
12:55 PM 55.4 °F - 28.4 °F 36% 30.01 in 10.0 mi SSW 11.5 mph - N/A   Clear
1:15 PM 55.4 °F - 28.4 °F 36% 30.00 in 10.0 mi SW 8.1 mph 15.0 mph N/A   Clear
1:35 PM 57.2 °F - 28.4 °F 33% 29.99 in 10.0 mi SW 10.4 mph 17.3 mph N/A   Clear
1:55 PM 57.2 °F - 28.4 °F 33% 29.98 in 10.0 mi South 9.2 mph 15.0 mph N/A   Clear
2:15 PM 59.0 °F - 28.4 °F 31% 29.98 in 10.0 mi SW 9.2 mph 18.4 mph N/A   Clear
2:35 PM 59.0 °F - 26.6 °F 29% 29.97 in 10.0 mi SW 9.2 mph 17.3 mph N/A   Clear
2:55 PM 59.0 °F - 26.6 °F 29% 29.96 in 10.0 mi South 10.4 mph 18.4 mph N/A   Clear
3:15 PM 60.8 °F - 26.6 °F 27% 29.95 in 10.0 mi South 10.4 mph - N/A   Clear
3:35 PM 60.8 °F - 26.6 °F 27% 29.95 in 10.0 mi SSW 9.2 mph - N/A   Clear
3:55 PM 60.8 °F - 24.8 °F 25% 29.94 in 10.0 mi SSW 11.5 mph 18.4 mph N/A   Clear
4:15 PM 60.8 °F - 24.8 °F 25% 29.93 in 10.0 mi South 12.7 mph - N/A   Clear
4:35 PM 60.8 °F - 24.8 °F 25% 29.93 in 10.0 mi SSW 11.5 mph - N/A   Clear
4:55 PM 59.0 °F - 24.8 °F 27% 29.93 in 10.0 mi South 12.7 mph - N/A   Clear
5:15 PM 59.0 °F - 24.8 °F 27% 29.93 in 10.0 mi South 9.2 mph 18.4 mph N/A   Clear
5:35 PM 57.2 °F - 24.8 °F 29% 29.93 in 10.0 mi South 8.1 mph 15.0 mph N/A   Clear
5:55 PM 55.4 °F - 24.8 °F 31% 29.93 in 10.0 mi South 6.9 mph - N/A   Clear
6:15 PM 51.8 °F - 24.8 °F 35% 29.94 in 10.0 mi South 6.9 mph - N/A   Clear
6:35 PM 50.0 °F - 24.8 °F 37% 29.94 in 10.0 mi South 8.1 mph - N/A   Clear
6:55 PM 50.0 °F - 24.8 °F 37% 29.94 in 10.0 mi South 8.1 mph - N/A   Clear
7:15 PM 48.2 °F - 26.6 °F 43% 29.94 in 10.0 mi South 8.1 mph - N/A   Clear
7:35 PM 48.2 °F - 26.6 °F 43% 29.95 in 10.0 mi South 8.1 mph - N/A   Clear
7:55 PM 50.0 °F - 26.6 °F 40% 29.95 in 10.0 mi South 8.1 mph - N/A   Clear
8:15 PM 50.0 °F - 26.6 °F 40% 29.95 in 10.0 mi South 11.5 mph - N/A   Clear
8:35 PM 50.0 °F - 26.6 °F 40% 29.96 in 10.0 mi SSW 10.4 mph - N/A   Clear
8:55 PM 48.2 °F - 26.6 °F 43% 29.97 in 10.0 mi SW 8.1 mph - N/A   Clear
9:15 PM 46.4 °F 43.5 °F 26.6 °F 46% 29.98 in 10.0 mi SW 5.8 mph - N/A   Partly Cloudy
9:35 PM 44.6 °F 42.2 °F 26.6 °F 49% 29.99 in 10.0 mi SW 4.6 mph - N/A   Partly Cloudy
9:55 PM 39.2 °F 37.0 °F 26.6 °F 61% 30.00 in 10.0 mi SW 3.5 mph - N/A   Clear
10:15 PM 39.2 °F 35.9 °F 26.6 °F 61% 30.01 in 10.0 mi South 4.6 mph - N/A   Clear
10:35 PM 41.0 °F 38.0 °F 26.6 °F 57% 30.01 in 10.0 mi South 4.6 mph - N/A   Clear
10:55 PM 35.6 °F 30.7 °F 24.8 °F 65% 30.02 in 10.0 mi South 5.8 mph - N/A   Clear
11:15 PM 33.8 °F 29.6 °F 24.8 °F 70% 30.02 in 10.0 mi SSE 4.6 mph - N/A   Clear
11:35 PM 35.6 °F 31.7 °F 26.6 °F 70% 30.02 in 10.0 mi SSE 4.6 mph - N/A   Clear
11:55 PM 33.8 °F 28.6 °F 24.8 °F 70% 30.02 in 10.0 mi SSE 5.8 mph - N/A   Clear